Home > Weather > Tananger > Past weeks

Flag for Norway Past Weather in Tananger, Norway — Yesterday and Last 2 Weeks

Now
61 °F

Passing clouds.


Feels Like: 61 °F
Forecast: 48 / 60 °F
Wind: 12 mph from Northwest

Location: Stavanger / Sola

Current Time: May 26, 2016 at 2:52:19 PM

Latest Report: May 26, 2016 at 2:20 PM


Visibility: N/A

Pressure: 30.12 "Hg

Humidity: 48%

Dew Point: 41 °F

Location of TanangerLocation

Past Weather in Tananger — Graph

°F

Tananger Temperature Yesterday

Maximum temperature yesterday: 68 °F (at 3:20 PM)
Minimum temperature yesterday: 46 °F (at 3:50 AM)
Average temperature yesterday: 59 °F

High & Low Weather Summary for the Past Weeks

 TemperatureHumidityPressure
High70 °F (May 11, 1:20 PM)100% (May 19, 12:50 AM)30.12 "Hg (May 19, 12:50 AM)
Low43 °F (May 13, 3:50 AM)37% (May 25, 2:50 PM)29.62 "Hg (May 20, 9:50 AM)
Average52 °F75%29.86 "Hg
* Reported May 11 1:20 PM — May 26 1:50 PM, Tananger, Weather by CustomWeather, © 2016

Note: Actual official high and low records may vary slightly from our data, if they occured in-between our weather recording intervals... More about our weather records

Advertising

Tananger Weather History for the Previous 24 Hours

Scroll right to see more
 ConditionsComfort  
Time TempWeatherWind HumidityBarometerVisibility
1:50 PM
Thu, May 26
61 °FPassing clouds.12 mph48%30.12 "HgN/A
1:20 PM61 °FPassing clouds.12 mph52%30.12 "HgN/A
12:50 PM61 °FPassing clouds.9 mph48%30.12 "HgN/A
12:20 PM61 °FPassing clouds.10 mph52%30.12 "HgN/A
11:50 AM61 °FPassing clouds.9 mph55%30.12 "HgN/A
11:20 AM61 °FPassing clouds.8 mph52%30.12 "HgN/A
10:50 AM63 °FSunny.No wind49%30.12 "Hg10 mi
10:20 AM61 °FSunny.No wind52%30.12 "Hg10 mi
9:50 AM59 °FSunny.5 mph59%30.12 "Hg10 mi
9:20 AM59 °FSunny.5 mph59%30.12 "Hg10 mi
8:50 AM57 °FSunny.3 mph67%30.12 "Hg10 mi
8:20 AM55 °FSunny.3 mph72%30.12 "Hg10 mi
7:50 AM55 °FSunny.2 mph72%30.12 "Hg10 mi
7:20 AM52 °FSunny.2 mph82%30.12 "Hg10 mi
6:50 AM48 °FSunny.No wind87%30.12 "Hg10 mi
6:20 AM46 °FSunny.No wind87%30.12 "Hg10 mi
5:50 AM46 °FSunny.2 mph87%30.12 "Hg10 mi
4:50 AM46 °FClear.1 mph87%30.12 "Hg10 mi
3:50 AM48 °FClear.2 mph82%30.12 "Hg10 mi
2:50 AM48 °FClear.2 mph87%30.12 "Hg10 mi
1:50 AM48 °FClear.2 mph87%30.12 "Hg10 mi
12:50 AM50 °FClear.10 mph88%30.12 "Hg10 mi
12:20 AM50 °FClear.10 mph82%30.12 "Hg10 mi
11:50 PM
Wed, May 25
50 °FClear.12 mph82%30.12 "Hg10 mi
11:20 PM52 °FSunny.12 mph77%30.09 "Hg10 mi
10:50 PM52 °FSunny.12 mph82%30.09 "Hg10 mi
10:20 PM52 °FSunny.12 mph82%30.09 "Hg10 mi
9:50 PM55 °FSunny.12 mph72%30.09 "Hg10 mi
9:20 PM59 °FSunny.8 mph59%30.07 "Hg10 mi
8:50 PM59 °FSunny.7 mph63%30.07 "Hg10 mi
8:20 PM64 °FSunny.7 mph49%30.07 "Hg10 mi
7:50 PM64 °FSunny.8 mph46%30.07 "Hg10 mi
7:20 PM64 °FSunny.10 mph43%30.07 "Hg10 mi
6:50 PM66 °FSunny.13 mph40%30.07 "Hg10 mi
6:20 PM66 °FSunny.14 mph37%30.07 "Hg10 mi
5:50 PM68 °FSunny.13 mph38%30.07 "Hg10 mi
5:20 PM66 °FSunny.14 mph43%30.07 "Hg10 mi
4:50 PM66 °FSunny.14 mph43%30.07 "Hg10 mi
4:20 PM68 °FSunny.15 mph38%30.09 "Hg10 mi
3:50 PM66 °FSunny.14 mph40%30.09 "Hg10 mi
3:20 PM68 °FSunny.13 mph38%30.09 "Hg10 mi
2:50 PM66 °FSunny.15 mph37%30.09 "Hg10 mi
2:20 PM66 °FSunny.15 mph40%30.09 "Hg10 mi
Weather by CustomWeather, © 2016

See weather overviewHow to use our weather pages